{"data":{"norad_id":52150,"intl_designator":"2022-031A","name":"TK-2","alt_names":[],"object_type":"PAYLOAD","status":"ACTIVE","operator":null,"country":"PRC","launch_date":"2022-03-29","launch_site_code":"TAISC","launch_vehicle":null,"mission":null,"orbit_class":"UNKNOWN","rcs_meters":null,"size_class":null,"mass_kg":null,"dimensions":null,"purposes":[],"wikipedia_slug":null,"has_3d_model":false,"image_url":null,"decayed_at":null,"tle_current":{"epoch":"2026-09-20T22:47:57.453792Z","epoch_age_seconds":82243,"freshness":"FRESH","line1":"1 52150U 22031A   26263.94997053  .00001689  00000+0  12665-3 0  9992","line2":"2 52150  97.8280 101.2292 0015881 157.3857 202.8072 15.03977981244859","mean_motion":15.03977981,"eccentricity":0.0015881,"inclination_deg":97.828,"raan_deg":101.2292,"arg_perigee_deg":157.3857,"mean_anomaly_deg":202.8072,"bstar":0.00012665,"rev_number":24485,"period_min":95.746082601724,"perigee_km":543.63470691277,"apogee_km":565.6546080132,"semimajor_km":6932.781657463,"source":"CELESTRAK","updated_at":"2026-09-21T09:00:08.490604Z"}}}